• In Czech Republic
  • List of Countries
  • For 7 days
  • Water Temperature
  • Satellite Maps
  • Weather Map
  • Weather Widgets
  • user-avatar
    Login

    Hourly Weather Sacramento

    Today, 25 February, Sunday

    Time Temperature Precipitation Wind Pressure Humidity
    00:00 +5°C° 0 mm 2 mps 769 mmHg 81%
    01:00 +5°C° 0 mm 2 mps 769 mmHg 82%
    02:00 +4°C° 0 mm 2 mps 769 mmHg 82%
    03:00 +4°C° 0 mm 2 mps 769 mmHg 82%
    04:00 +3°C° 0 mm 2 mps 769 mmHg 82%
    05:00 +3°C° 0 mm 2 mps 769 mmHg 81%
    06:00 +3°C° 0 mm 2 mps 769 mmHg 80%
    07:00 +4°C° 0 mm 1 mps 769 mmHg 80%
    08:00 +6°C° 0 mm 1 mps 769 mmHg 71%
    09:00 +9°C° 0 mm 1 mps 768 mmHg 62%
    10:00 +11°C° 0 mm 1 mps 768 mmHg 53%
    11:00 +13°C° 0 mm 1 mps 767 mmHg 49%
    12:00 +14°C° 0 mm 1 mps 767 mmHg 46%
    13:00 +15°C° 0 mm 2 mps 766 mmHg 43%
    14:00 +15°C° 0 mm 2 mps 766 mmHg 44%
    15:00 +16°C° 0 mm 3 mps 765 mmHg 44%
    16:00 +16°C° 0 mm 3 mps 765 mmHg 45%
    17:00 +13°C° 0 mm 3 mps 765 mmHg 51%
    18:00 +11°C° 0 mm 3 mps 765 mmHg 56%
    19:00 +10°C° 0 mm 3 mps 765 mmHg 62%
    20:00 +9°C° 0 mm 3 mps 765 mmHg 66%
    21:00 +8°C° 0 mm 3 mps 765 mmHg 71%
    22:00 +7°C° 0 mm 3 mps 765 mmHg 76%
    23:00 +7°C° 0 mm 3 mps 765 mmHg 78%

    Tomorrow, 26 February, Monday

    Time Temperature Precipitation Wind Pressure Humidity
    00:00 +7°C° 0 mm 3 mps 764 mmHg 80%
    01:00 +7°C° 0 mm 3 mps 764 mmHg 82%
    02:00 +6°C° 0.8 mm 4 mps 763 mmHg 83%
    03:00 +6°C° 0.8 mm 4 mps 762 mmHg 85%
    04:00 +6°C° 0.8 mm 4 mps 762 mmHg 87%
    05:00 +6°C° 1.2 mm 4 mps 761 mmHg 88%
    06:00 +6°C° 1.2 mm 4 mps 761 mmHg 90%
    07:00 +6°C° 1.2 mm 4 mps 760 mmHg 91%
    08:00 +8°C° 0.4 mm 3 mps 760 mmHg 85%
    09:00 +9°C° 0.4 mm 3 mps 761 mmHg 79%
    10:00 +9°C° 0.4 mm 3 mps 761 mmHg 73%
    11:00 +10°C° 0.6 mm 3 mps 761 mmHg 69%
    12:00 +11°C° 0.6 mm 4 mps 760 mmHg 64%
    13:00 +11°C° 0.6 mm 4 mps 760 mmHg 60%
    14:00 +11°C° 0.3 mm 4 mps 760 mmHg 57%
    15:00 +11°C° 0.3 mm 4 mps 760 mmHg 53%
    16:00 +11°C° 0.3 mm 4 mps 759 mmHg 50%
    17:00 +10°C° 0 mm 4 mps 760 mmHg 51%
    18:00 +8°C° 0 mm 4 mps 760 mmHg 53%
    19:00 +7°C° 0 mm 4 mps 760 mmHg 54%
    20:00 +6°C° 0 mm 5 mps 761 mmHg 55%
    21:00 +5°C° 0 mm 5 mps 761 mmHg 55%
    22:00 +4°C° 0 mm 6 mps 761 mmHg 56%
    23:00 +3°C° 0 mm 6 mps 761 mmHg 54%

    Day after tomorrow, 27 February, Tuesday

    Time Temperature Precipitation Wind Pressure Humidity
    00:00 +3°C° 0 mm 6 mps 761 mmHg 53%
    01:00 +2°C° 0 mm 7 mps 762 mmHg 52%
    02:00 +2°C° 0 mm 7 mps 762 mmHg 51%
    03:00 +2°C° 0 mm 7 mps 762 mmHg 51%
    04:00 +1°C° 0 mm 6 mps 762 mmHg 51%
    05:00 +1°C° 0 mm 6 mps 763 mmHg 50%
    06:00 +1°C° 0 mm 6 mps 763 mmHg 50%
    07:00 +1°C° 0 mm 6 mps 764 mmHg 49%
    08:00 +2°C° 0 mm 6 mps 764 mmHg 46%
    09:00 +4°C° 0 mm 6 mps 764 mmHg 43%
    10:00 +7°C° 0 mm 6 mps 764 mmHg 39%
    11:00 +8°C° 0 mm 5 mps 763 mmHg 37%
    12:00 +10°C° 0 mm 5 mps 763 mmHg 36%
    13:00 +12°C° 0 mm 5 mps 763 mmHg 34%
    14:00 +13°C° 0 mm 5 mps 763 mmHg 35%
    15:00 +13°C° 0 mm 4 mps 762 mmHg 35%
    16:00 +13°C° 0 mm 4 mps 762 mmHg 36%
    17:00 +11°C° 0 mm 3 mps 763 mmHg 40%
    18:00 +9°C° 0 mm 2 mps 763 mmHg 44%
    19:00 +8°C° 0 mm 1 mps 764 mmHg 48%
    20:00 +8°C° 0 mm 1 mps 765 mmHg 50%
    21:00 +7°C° 0 mm 1 mps 765 mmHg 52%
    22:00 +6°C° 0 mm 1 mps 765 mmHg 53%
    23:00 +6°C° 0 mm 1 mps 765 mmHg 56%

    28 February, Wednesday

    Time Temperature Precipitation Wind Pressure Humidity
    00:00 +6°C° 0 mm 1 mps 765 mmHg 58%
    01:00 +5°C° 0 mm 1 mps 765 mmHg 60%
    02:00 +5°C° 0 mm 1 mps 765 mmHg 62%
    03:00 +4°C° 0 mm 1 mps 765 mmHg 64%
    04:00 +4°C° 0 mm 1 mps 765 mmHg 66%
    05:00 +4°C° 0 mm 1 mps 765 mmHg 67%
    06:00 +3°C° 0 mm 1 mps 765 mmHg 69%
    07:00 +3°C° 0 mm 1 mps 765 mmHg 70%
    08:00 +4°C° 0 mm 2 mps 765 mmHg 64%
    09:00 +7°C° 0 mm 2 mps 765 mmHg 58%
    10:00 +9°C° 0 mm 3 mps 765 mmHg 53%
    11:00 +10°C° 0 mm 3 mps 765 mmHg 52%
    12:00 +11°C° 0 mm 3 mps 764 mmHg 51%
    13:00 +12°C° 0 mm 3 mps 764 mmHg 50%
    14:00 +11°C° 0.3 mm 3 mps 764 mmHg 58%
    15:00 +10°C° 0.3 mm 3 mps 764 mmHg 66%
    16:00 +10°C° 0.3 mm 3 mps 763 mmHg 74%
    17:00 +9°C° 0.6 mm 3 mps 763 mmHg 79%
    18:00 +8°C° 0.6 mm 3 mps 763 mmHg 83%
    19:00 +8°C° 0.6 mm 3 mps 763 mmHg 88%
    20:00 +7°C° 0.6 mm 4 mps 762 mmHg 88%
    21:00 +7°C° 0.6 mm 4 mps 762 mmHg 88%
    22:00 +6°C° 0.6 mm 5 mps 761 mmHg 88%
    23:00 +7°C° 0.2 mm 5 mps 760 mmHg 87%

    1 March, Thursday

    Time Temperature Precipitation Wind Pressure Humidity
    00:00 +7°C° 0.2 mm 5 mps 760 mmHg 86%
    01:00 +7°C° 0.2 mm 6 mps 759 mmHg 85%
    02:00 +7°C° 1.3 mm 6 mps 758 mmHg 86%
    03:00 +7°C° 1.3 mm 6 mps 758 mmHg 86%
    04:00 +7°C° 1.3 mm 6 mps 757 mmHg 87%
    05:00 +7°C° 2.6 mm 6 mps 757 mmHg 89%
    06:00 +7°C° 2.6 mm 6 mps 757 mmHg 90%
    07:00 +7°C° 2.6 mm 5 mps 756 mmHg 92%
    08:00 +7°C° 1.4 mm 5 mps 757 mmHg 90%
    09:00 +7°C° 1.4 mm 5 mps 757 mmHg 87%
    10:00 +8°C° 1.4 mm 5 mps 757 mmHg 85%
    11:00 +9°C° 0.4 mm 5 mps 756 mmHg 77%
    12:00 +9°C° 0.4 mm 5 mps 756 mmHg 70%
    13:00 +10°C° 0.4 mm 5 mps 756 mmHg 63%
    14:00 +10°C° 0.2 mm 5 mps 756 mmHg 61%
    15:00 +10°C° 0.2 mm 5 mps 755 mmHg 60%
    16:00 +10°C° 0.2 mm 5 mps 755 mmHg 59%
    17:00 +10°C° 0.1 mm 4 mps 755 mmHg 64%
    18:00 +7°C° 0.1 mm 4 mps 756 mmHg 68%
    19:00 +7°C° 0.1 mm 3 mps 756 mmHg 73%
    20:00 +7°C° 0.2 mm 3 mps 756 mmHg 76%
    21:00 +5°C° 0.2 mm 3 mps 756 mmHg 78%
    22:00 +5°C° 0.2 mm 3 mps 756 mmHg 81%
    23:00 +5°C° 0.2 mm 3 mps 756 mmHg 82%

    2 March, Friday

    Time Temperature Precipitation Wind Pressure Humidity
    00:00 +5°C° 0.2 mm 3 mps 756 mmHg 83%
    01:00 +5°C° 0.2 mm 3 mps 756 mmHg 85%
    02:00 +5°C° 0.4 mm 4 mps 756 mmHg 86%
    03:00 +4°C° 0.4 mm 4 mps 756 mmHg 86%
    04:00 +4°C° 0.4 mm 4 mps 756 mmHg 87%
    05:00 +4°C° 0.3 mm 4 mps 756 mmHg 87%
    06:00 +4°C° 0.3 mm 3 mps 757 mmHg 87%
    07:00 +4°C° 0.3 mm 3 mps 757 mmHg 87%
    08:00 +5°C° 0.2 mm 4 mps 758 mmHg 79%
    09:00 +6°C° 0.2 mm 4 mps 758 mmHg 72%
    10:00 +8°C° 0.2 mm 5 mps 758 mmHg 64%
    11:00 +8°C° 0.4 mm 5 mps 758 mmHg 64%
    12:00 +8°C° 0.4 mm 5 mps 758 mmHg 63%
    13:00 +8°C° 0.4 mm 6 mps 759 mmHg 63%
    14:00 +8°C° 0.4 mm 5 mps 758 mmHg 65%
    15:00 +8°C° 0.4 mm 5 mps 758 mmHg 67%
    16:00 +7°C° 0.4 mm 5 mps 758 mmHg 69%
    17:00 +6°C° 0.2 mm 4 mps 759 mmHg 73%
    18:00 +5°C° 0.2 mm 4 mps 759 mmHg 76%
    19:00 +4°C° 0.2 mm 3 mps 759 mmHg 80%
    20:00 +4°C° 0 mm 3 mps 760 mmHg 81%
    21:00 +3°C° 0 mm 3 mps 760 mmHg 82%
    22:00 +3°C° 0 mm 3 mps 761 mmHg 83%
    23:00 +4°C° 0 mm 2 mps 761 mmHg 85%
    Show more